Regional Weather Roundup
Issued by NWS

Home | Current Version | Previous Version | Text Only | Print | Product List | Glossary On
Versions: 1 2 3 4 5 6 7 8 9 10 11 12 13 14 15 16 17 18 19 20 21 22 23 24 25 26 27 28 29 30 31 32 33 34 35 36 37 38 39 40 41 42 43 44 45 46 47 48 49 50
000
ASUS43 KFSD 232110
RWRSD

WEATHER ROUNDUP FOR SOUTH DAKOTA
NATIONAL WEATHER SERVICE SIOUX FALLS SD
300 PM CST THU NOV 23 2017

NOTE: "FAIR" INDICATES FEW OR NO CLOUDS BELOW 12,000 FEET WITH NO
SIGNIFICANT WEATHER AND/OR OBSTRUCTIONS TO VISIBILITY.


SDZ001>005-009-010-012>017-232200-
NORTHWEST AND NORTH CENTRAL SOUTH DAKOTA

CITY           SKY/WX    TMP DP  RH WIND       PRES   REMARKS
FAITH            N/A     74  36  25 W16       29.70F
MOBRIDGE       SUNNY     64  42  44 S13       29.64F
$$

SDZ012>016-024>037-041>051-057-063-072>074-232200-
SOUTHWEST AND SOUTH CENTRAL SOUTH DAKOTA

CITY           SKY/WX    TMP DP  RH WIND       PRES   REMARKS
RAPID CTY ARPT CLOUDY    71  33  24 SW10      29.77F
PIERRE         CLOUDY    66  43  43 SW3       29.71F
CUSTER         CLOUDY    56  33  42 W13G20    29.92F
ELLSWORTH AFB  PTSUNNY   72  35  26 SW8       29.76F
PHILIP         SUNNY     75  39  27 SW14      29.74F
PINE RIDGE     SUNNY     72  38  29 SW12      29.83F
SPEARFISH      FAIR      70  32  24 SW16G22   29.80F
WINNER         FAIR      75  42  30 SW9       29.77F
$$

SDZ004>011-016>023-039-040-232200-
NORTHEAST SOUTH DAKOTA

CITY           SKY/WX    TMP DP  RH WIND       PRES   REMARKS
ABERDEEN       SUNNY     56  39  53 S13       29.68F
WATERTOWN      CLOUDY    56  38  50 S13       29.72F
BROOKINGS      CLOUDY    58  37  45 SW12      29.75F
SISSETON         N/A     59  39  47 SW16G26   29.64F
$$

SDZ017-020-022-023-036>040-048>070-232200-
SOUTHEAST SOUTH DAKOTA

CITY           SKY/WX    TMP DP  RH WIND       PRES   REMARKS
SIOUX FALLS    CLOUDY    59  38  45 SW12      29.79F
HURON          CLOUDY    59  41  51 S9        29.72F
CHAMBERLAIN    CLOUDY    72  46  39 SW5       29.75F
MITCHELL       CLOUDY    65  41  41 S8        29.76F
YANKTON        SUNNY     70  43  37 SW10      29.79F
$$

ABBREVIATIONS USED IN REMARKS
   TC - TEMPERATURE IN CELSIUS
  WCI - WIND CHILL INDEX
   HX - HEAT INDEX
  VSB - VISIBILITY




USA.gov is the U.S. government's official web portal to all federal, state and local government web resources and services.